Voltar ao catálogo

COSMOS 2432

GLONASS

AtivoNavegaçãoMEO
NORAD 32276·PAYLOAD·🇷🇺 Russia

Lançado Oct 26, 2007 de Baikonur Cosmodrome

Loading…

Próximas Passagens (próximas 24 horas)

TLE

AtualizadoSource: Space-Track

Época: Sep 14, 2026, 15:36 UTC

1 32276U 07052B   26257.65060112 -.00000055  00000-0  00000+0 0  9997
2 32276  65.5369 313.0490 0008668 307.4509  78.0103  2.13103081146999

Acompanhe COSMOS 2432 em tempo real com AllMySat

Download on the App Store